Regional Weather Roundup
Issued by NWS Upton, NY

Current Version | Previous Version | Text Only | Print | Product List | Glossary Off
Versions: 1 2 3 4 5 6 7 8 9 10 11 12 13 14 15 16 17 18 19 20 21 22 23 24 25 26 27 28 29 30 31 32 33 34 35 36 37 38 39 40 41 42 43 44 45 46 47 48 49 50

000
ASUS41 KOKX 241205
RWROKX

REGIONAL WEATHER ROUNDUP
NATIONAL WEATHER SERVICE NEW YORK NY
800 AM EDT THU JUL 24 2014

NOTE: "FAIR" INDICATES FEW OR NO CLOUDS BELOW 12,000 FEET WITH NO
SIGNIFICANT WEATHER AND/OR OBSTRUCTIONS TO VISIBILITY.

NYZ071-072-176-178-NJZ106-104-241300-
NEW YORK CITY METRO AREA


CITY           SKY/WX    TMP DP  RH WIND       PRES   REMARKS
CENTRAL PARK   PTSUNNY   72  65  78 VRB3      29.87S
LAGUARDIA APRT CLOUDY    73  64  73 NW10      29.83S
KENNEDY INTL   PTSUNNY   75  64  68 N15       29.84R
NEWARK/LIBERTY CLOUDY    73  63  70 N12       29.85R
BRNX BOT. GARD   N/A     72  64  78 N3        29.87R
TETERBORO      PTSUNNY   74  63  68 NW10      29.84R
$$

NYZ177-179-078>081-241300-
LONG ISLAND NEW YORK

CITY           SKY/WX    TMP DP  RH WIND       PRES   REMARKS
FARMINGDALE    PTSUNNY   73  64  73 N9        29.83R
ISLIP          PTSUNNY   76  65  68 N14G22    29.81R
SHIRLEY        MOSUNNY   74  66  76 N12       29.82R
WESTHAMPTON    MOSUNNY   75  66  73 N13       29.82R
MONTAUK POINT    N/A     72  68  87 NW6       29.81R
$$

NYZ052-065-067-241300-
HUDSON VALLEY

CITY           SKY/WX    TMP DP  RH WIND       PRES   REMARKS
WHITE PLAINS   PTSUNNY   70  64  81 N10       29.85R
NEWBURGH       PTSUNNY   68  66  94 NE9       29.89R
MONTGOMERY     CLOUDY    69  62  78 NW5       29.87R
POUGHKEEPSIE   PTSUNNY   70  62  76 N9        29.87R
ALBANY         PTSUNNY   68  60  75 N9        29.91R
$$

NJZ001-105-106-008-010-013-015-019>022-104-241300-
NEW JERSEY

CITY           SKY/WX    TMP DP  RH WIND       PRES   REMARKS
NEWARK/LIBERTY CLOUDY    73  63  70 N12       29.85R
TETERBORO      PTSUNNY   74  63  68 NW10      29.84R
CALDWELL       CLOUDY    71  61  70 VRB5      29.86S
MORRISTOWN     MOSUNNY   70  63  78 N8        29.87R
SOMERVILLE     PTSUNNY   72  63  73 N6        29.85R
LINDEN         FAIR      73  64  73 N8        29.87R
SUSSEX         MOSUNNY   70  60  70 NW3       29.88S
ANDOVER          N/A     69  61  75 VRB6      29.90R
TRENTON        PTSUNNY   70  65  84 NW8       29.87R
MILLVILLE      CLOUDY    71  68  90 NW6       29.87R
ATLANTIC CITY  CLOUDY    71  67  87 N7        29.85R
WRIGHTSTOWN    PTSUNNY   72  65  79 N8        29.85R
TOMS RIVER     PTSUNNY   72  64  78 N8        29.85F
BELMAR         PTSUNNY   72  63  73 NW9       29.86R
$$

PAZ047>061-062-071-241300-
EASTERN PENNSYLVANIA

CITY           SKY/WX    TMP DP  RH WIND       PRES   REMARKS
PHILADELPHIA   CLOUDY    72  60  66 N13       29.87S
ALLENTOWN      MOSUNNY   69  60  73 NW7       29.90R
SCRANTON       MOSUNNY   67  57  70 N9        29.95R
$$

CTZ002-004>006-009-010-012-RIZ004-006-007-MAZ004-011-015-241300-
SOUTHERN NEW ENGLAND
 IN CT

CITY           SKY/WX    TMP DP  RH WIND       PRES   REMARKS
BRADLEY INTL   PTSUNNY   70  63  78 N9        29.83R
HARTFORD       CLOUDY    71  63  75 N12       29.83R
DANBURY        PTSUNNY   69  62  78 N7        29.87R
WTRBRY/OXFORD  MOSUNNY   68  61  77 N10       29.87R
BRIDGEPORT     CLOUDY    72  64  76 N10       29.82R
MERIDEN        MOSUNNY   72  63  73 NW8       29.83R
NEW HAVEN      PTSUNNY   74  65  73 N10       29.82R
CHESTER        FAIR      72  66  83 N12       29.83R
GROTON         SUNNY     73  68  84 N10       29.79R
WILLIMANTIC    PTSUNNY   71  64  78 N10G18    29.83R

 IN RI

CITY           SKY/WX    TMP DP  RH WIND       PRES   REMARKS
PROVIDENCE     PTSUNNY   73  68  84 N9        29.79S
BLOCK ISLAND   SUNNY     72  66  83 N8        29.79R
WESTERLY       SUNNY     75  67  76 N12       29.79S

 IN MA

CITY           SKY/WX    TMP DP  RH WIND       PRES   REMARKS
BOSTON         PTSUNNY   74  65  73 N10G17    29.78S
WORCESTER      CLOUDY    67  62  84 NW10      29.84S
WESTFIELD      PTSUNNY   69  62  78 N6        29.84R
PROVINCETOWN   PTSUNNY   70  68  94 N5        29.78S
NANTUCKET      PTSUNNY   70  69  97 SW3       29.77S FOG
$$

ANZ330-335-338-340-345-350-353-355-241300-
COASTAL MARINE OBSERVATIONS


STATION/POSITION TIME  SKY/WX   TEMP    WIND        PRES    VSBY  WAVE
                                AIR SEA DIR/SP/G                  HT/PER
                 (UTC)          (F)     (DEG/KT/KT) (MB)    (MI)  (FT/S)
NY HARB ENTRANCE NOT AVBL
4S FIRE IS       NOT AVBL
23SW MTP         1200            72 70              1008.5          2/ 7
HUDSON CANYON    1200            74 74  340/ 12/ 16 1009.0          3/ 5
EXECUTION ROCKS  1200            72 71  340/  8/ 10   N/A
WESTERN LI SOUND 1200            72     350/  6/  8   N/A           0
CENTRAL LI SOUND 1100            72 72  350/ 10/ 12   N/A           1
EASTERN LI SOUND 1100            76 67  350/  8/ 10   N/A
ROBBINS REEF     1200            72     340/  9/ 13   N/A
$$


>>>>>>>>>>>>>>>>>>>>>>>>>>>> KEY <<<<<<<<<<<<<<<<<<<<<<<<<<<
>                                                          <
>     SKY/WX - SKY CONDITION/PRESENT WEATHER               <
>     TMP    - TEMPERATURE IN FAHRENHEIT                   <
>     DP     - DEWPOINT IN FAHRENHEIT                      <
>     RH     - RELATIVE HUMIDITY IN PERCENT                <
>     WIND   - DIRECTION AND SPEED IN MPH                  <
>     PRES   - MEAN SEA LEVEL PRESSURE IN INCHES OF HG     <
>     WCI    - WIND CHILL INDEX                            <
>     VSB    - VISIBILITY IN MILES                         <
>     HX     - HEAT INDEX                                  <
>     TC     - TEMPERATURE IN CELSIUS                      <
>     VRB    - VARIABLE WIND DIRECTION                     <
>                                                          <
>>>>>>>>>>>>>>>>>>>>>>>>>>>> KEY <<<<<<<<<<<<<<<<<<<<<<<<<<<




USA.gov is the U.S. government's official web portal to all federal, state and local government web resources and services.